Weather History for Los Alamitos, CA

Change the Weather History Date:

Tuesday, June 18, 2013

  Actual Average Record
Temperature  
Mean Temperature 65 °F -  
Max Temperature 74 °F 72 °F 95 °F (2008)
Min Temperature 57 °F 62 °F 57 °F (2013)
Growing Degree Days 15 (Base 50)    
Moisture  
Dew Point 59 °F    
Average Humidity 86    
Maximum Humidity 100    
Minimum Humidity 50    
Precipitation  
Precipitation 0.00 in - - ()
Sea Level Pressure  
Sea Level Pressure 29.89 in    
Wind  
Wind Speed 3 mph (South)    
Max Wind Speed 13 mph    
Max Gust Speed 20 mph    
Visibility 8 miles    
Events      
Averages and records for this station are not official NWS values.
T = Trace of Precipitation, MM = Missing Value Source: NWS Daily Summary

Daily Weather History Graph

Daily Weather History Graph

Search for Another Location

Airport:

Trip Planner

Search our weather history database for the weather conditions in past years. The results will help you decide how hot, cold, wet, or windy it might be!

Date:

Astronomy

Jun. 18, 2013 Rise Set
Actual Time 5:41 AM PDT 8:05 PM PDT
Civil Twilight 5:12 AM PDT 8:34 PM PDT
Nautical Twilight 4:36 AM PDT 9:10 PM PDT
Astronomical Twilight 3:57 AM PDT 9:49 PM PDT
Moon 3:05 PM PDT (6/18) 1:40 AM PDT (6/18)
Length of Visible Light 15h 22m
Length of Day
14h 24m
Waxing Gibbous, 72% of the Moon is Illuminated
Jun 18
Waxing Gibbous
Jun 23
Full
Jun 29
Last Quarter
Jul 8
New
Jul 15
First Quarter

Hourly Weather History & Observations

Time (PDT) Temp. Dew Point Humidity Pressure Visibility Wind Dir Wind Speed Gust Speed Precip Events Conditions
12:58 AM 62.6 °F 62.6 °F 100% 29.90 in 10.0 mi SSE 2.3 mph - N/A   Clear
1:58 AM 61.2 °F 61.2 °F 100% 29.89 in 10.0 mi Calm Calm - N/A   Clear
2:58 AM 60.4 °F 60.4 °F 100% 29.88 in 10.0 mi Calm Calm - N/A   Clear
3:58 AM 59.4 °F 59.4 °F 100% 29.88 in 6.0 mi Calm Calm - N/A   Clear
4:58 AM 58.3 °F 58.3 °F 100% 29.89 in 7.0 mi Calm Calm - N/A   Clear
5:03 AM 57.2 °F 57.2 °F 100% 29.88 in 2.0 mi Calm Calm - N/A   Scattered Clouds
5:08 AM 57.2 °F 57.2 °F 100% 29.88 in 1.2 mi Calm Calm - N/A   Mostly Cloudy
5:13 AM 59.0 °F 59.0 °F 100% 29.88 in 2.5 mi Calm Calm - N/A   Mostly Cloudy
5:18 AM 59.0 °F 59.0 °F 100% 29.88 in 10.0 mi Calm Calm - N/A   Mostly Cloudy
5:30 AM 59.0 °F 59.0 °F 100% 29.89 in 10.0 mi Calm Calm - N/A   Overcast
5:45 AM 59.0 °F 59.0 °F 100% 29.89 in 10.0 mi SE 1.2 mph - N/A   Overcast
5:58 AM 60.4 °F 60.4 °F 100% 29.90 in 10.0 mi Calm Calm - N/A   Overcast
6:58 AM 61.3 °F 61.3 °F 100% 29.92 in 4.0 mi Calm Calm - N/A   Overcast
7:08 AM 62.6 °F 62.6 °F 100% 29.91 in 4.0 mi SSE 3.5 mph - N/A   Overcast
7:58 AM 62.8 °F 62.8 °F 100% 29.93 in 5.0 mi East 4.6 mph - N/A   Overcast
8:58 AM 64.6 °F 62.1 °F 92% 29.94 in 7.0 mi Variable 1.2 mph - N/A   Overcast
9:28 AM 66.2 °F 60.8 °F 83% 29.93 in 7.0 mi Variable 2.3 mph - N/A   Overcast
9:58 AM 68.4 °F 59.4 °F 73% 29.93 in 7.0 mi Variable 4.6 mph - N/A   Mostly Cloudy
10:23 AM 69.8 °F 57.2 °F 64% 29.92 in 7.0 mi Variable 6.9 mph - N/A   Scattered Clouds
10:58 AM 72.0 °F 55.2 °F 55% 29.93 in 10.0 mi SSW 6.9 mph - N/A   Partly Cloudy
11:58 AM 72.9 °F 54.0 °F 51% 29.93 in 10.0 mi SSW 10.4 mph 19.6 mph N/A   Clear
12:58 PM 73.0 °F 53.6 °F 50% 29.91 in 10.0 mi SW 9.2 mph - N/A   Clear
1:58 PM 73.6 °F 54.0 °F 50% 29.91 in 10.0 mi SSW 11.5 mph - N/A   Clear
2:58 PM 73.2 °F 54.7 °F 52% 29.90 in 10.0 mi South 9.2 mph - N/A   Clear
3:58 PM 71.6 °F 56.5 °F 59% 29.88 in 10.0 mi SSW 11.5 mph - N/A   Clear
4:58 PM 73.0 °F 56.1 °F 55% 29.86 in 10.0 mi SSW 12.7 mph - N/A   Clear
5:58 PM 72.0 °F 57.2 °F 60% 29.85 in 10.0 mi South 12.7 mph - N/A   Clear
6:58 PM 68.4 °F 63.3 °F 84% 29.86 in 10.0 mi South 11.5 mph - N/A   Clear
7:58 PM 64.9 °F 64.8 °F 99% 29.86 in 10.0 mi South 9.2 mph - N/A   Clear
8:58 PM 63.9 °F 63.9 °F 100% 29.86 in 10.0 mi South 5.8 mph - N/A   Clear
9:58 PM 63.1 °F 63.1 °F 100% 29.87 in 10.0 mi South 5.8 mph - N/A   Clear
10:58 PM 63.0 °F 63.0 °F 100% 29.87 in 10.0 mi South 5.8 mph - N/A   Clear
11:58 PM 62.1 °F 62.1 °F 100% 29.87 in 10.0 mi SSE 2.3 mph - N/A   Clear